Theta_e
322 326 326 326 327 327 327 327 327 326 326 327 327 327 327 328 329 329 328 329 329 329 328 328 328 328 328 328 328 327 326 326 326 326 326 325 324 324 323 323 323 323
314 320 324 326 326 327 327 328 328 327 327 327 328 328 329 329 330 330 329 328 328 328 329 329 328 328 328 327 327 326 326 326 325 326 325 325 324 324 324 323 323 323
310 313 319 324 325 326 327 328 328 328 328 328 328 329 329 330 330 330 330 329 328 328 328 328 328 328 327 327 327 326 325 325 325 326 325 325 325 324 324 324 323 323
309 311 313 320 325 326 326 327 327 328 328 328 328 329 328 330 329 329 330 326 328 328 328 328 328 328 327 327 327 326 326 325 325 326 325 324 325 325 324 324 323 323
309 310 313 316 321 325 327 327 327 327 327 328 329 329 328 328 328 328 328 328 328 328 328 328 328 327 327 326 326 325 325 324 325 325 324 324 324 324 324 324 323 322
310 309 311 313 317 322 324 326 327 327 327 327 327 328 328 328 328 327 327 327 327 327 327 327 327 327 327 326 325 325 325 324 324 324 324 323 324 324 324 323 323 322
310 310 310 311 312 314 317 323 326 326 327 327 327 327 327 327 327 327 327 326 326 325 326 326 326 326 326 326 325 324 324 324 324 324 323 323 323 324 324 324 323 322
308 311 311 311 311 311 311 313 318 322 325 326 325 326 326 326 325 326 326 326 325 325 324 325 325 326 326 325 324 323 323 324 324 324 323 323 323 322 323 323 323 322
305 308 311 311 310 311 311 312 313 314 315 317 320 322 324 324 324 324 324 324 324 323 324 323 324 325 325 325 323 323 322 323 323 323 322 322 322 322 323 323 322 321
303 305 307 308 310 312 311 312 313 314 314 314 315 317 319 320 321 322 323 323 323 323 323 323 323 323 324 324 324 323 322 322 323 323 322 322 322 322 322 322 322 321
301 303 304 305 306 308 309 309 310 310 311 312 314 315 316 317 317 319 320 320 321 321 321 321 322 322 322 322 323 323 322 322 322 322 322 323 323 322 315 322 322 321
300 302 302 303 303 303 304 305 305 306 308 309 310 312 314 315 315 316 316 317 318 319 319 320 320 321 320 321 321 321 321 321 322 322 322 322 322 322 322 322 322 322
299 299 300 301 301 302 302 302 302 303 303 306 306 306 308 310 311 312 314 315 316 317 318 318 319 319 320 320 320 320 320 320 320 321 321 321 321 321 322 322 322 322
298 298 298 299 301 301 302 303 304 303 302 302 301 303 304 304 306 309 310 311 313 314 316 317 318 318 319 319 319 320 320 320 320 319 320 320 320 321 321 321 321 322
297 297 297 298 299 301 302 303 303 304 304 303 302 302 303 304 304 304 303 304 305 307 310 313 314 316 317 317 318 318 319 319 319 319 319 318 318 318 319 320 320 321
296 297 297 297 297 298 300 301 301 302 302 303 304 304 304 304 303 302 302 302 303 304 304 306 309 311 306 301 304 316 317 318 318 318 317 317 317 316 316 317 318 319
295 296 296 296 297 297 298 299 299 300 300 301 302 303 303 303 303 303 302 302 302 303 302 303 305 306 298 300 300 299 307 315 316 316 316 316 315 315 315 313 312 313
294 294 294 295 296 296 297 298 298 298 299 300 300 301 302 302 303 304 304 304 303 302 302 302 303 297 298 298 297 298 297 304 310 313 314 315 314 314 314 312 309 307
293 293 294 294 295 295 295 296 297 298 298 299 299 300 300 301 302 303 303 303 303 303 303 303 303 296 296 295 296 297 297 298 306 309 310 310 309 308 308 307 304 302
294 293 293 294 294 294 293 294 295 297 297 297 297 297 299 300 301 301 302 302 301 302 303 302 300 296 294 293 294 294 295 297 304 306 307 306 305 305 305 303 300 299
292 292 292 292 292 293 293 294 294 294 295 296 296 297 298 299 300 300 301 300 300 299 298 298 300 294 292 292 293 294 295 295 302 302 300 296 295 296 297 297 297 297
291 291 291 292 291 291 292 292 293 294 294 295 294 296 297 297 297 298 298 299 299 298 297 298 299 292 291 292 293 294 295 299 299 296 292 291 291 291 291 292 293 293
290 290 291 291 292 292 292 292 292 292 293 293 293 295 295 295 297 297 298 298 298 297 297 298 299 294 290 291 292 294 295 297 293 292 291 289 288 289 290 290 290 290
290 290 290 291 291 291 292 292 291 291 291 292 292 293 294 295 295 295 295 295 295 296 297 297 298 294 288 291 292 293 295 296 293 292 290 289 288 288 288 288 287 287
290 290 290 290 290 291 292 292 292 292 290 290 290 291 293 294 293 294 295 295 295 294 289 291 295 293 289 290 291 292 295 297 293 291 289 289 288 288 288 288 288 287
291 290 290 290 290 290 291 291 292 291 292 292 292 292 291 292 292 292 292 293 293 292 293 293 294 295 293 289 291 292 292 297 296 293 291 289 289 289 289 288 289 288
Wind_Speed
14 14 16 16 17 17 17 18 15 14 13 12 12 13 15 12 13 15 15 15 15 16 16 17 16 16 15 15 15 14 13 14 13 14 14 14 15 17 16 17 17 15
14 14 13 14 15 14 16 17 17 16 15 13 12 12 11 11 11 11 13 15 15 15 16 15 15 15 16 15 15 15 14 14 16 11 14 17 16 16 16 17 16 16
12 13 15 16 16 17 17 16 16 17 15 14 13 11 11 10 11 11 12 13 13 14 15 15 15 15 15 15 15 14 14 14 14 14 13 15 14 14 15 16 13 16
11 12 13 15 15 17 14 13 14 15 15 15 15 13 10 7 9 10 11 12 13 14 14 15 15 14 15 15 14 13 14 13 14 14 14 13 14 14 14 13 13 14
10 11 11 12 13 14 12 12 14 14 12 14 13 14 9 9 9 10 11 13 14 14 13 14 14 14 13 13 14 14 13 13 13 14 14 14 13 13 13 12 12 13
9 9 10 9 10 12 12 13 13 14 10 10 14 14 12 10 12 13 14 14 14 14 14 13 14 13 13 14 13 13 13 12 12 13 14 14 13 13 9 10 12 13
11 10 10 9 8 7 10 12 12 12 10 12 11 11 12 12 13 15 15 14 14 13 14 14 14 14 13 13 13 14 14 14 12 13 14 13 11 12 10 12 12 13
12 10 9 8 8 7 7 8 9 7 7 8 8 7 8 10 10 12 13 14 13 13 13 14 14 14 14 13 14 14 14 11 13 13 13 14 11 12 12 10 11 12
11 10 9 9 9 7 6 6 7 7 6 6 5 4 5 5 9 10 11 11 12 11 12 13 13 14 13 14 13 14 13 12 13 14 14 12 12 13 13 11 12 12
11 10 10 9 9 8 7 5 5 5 4 6 6 5 7 7 7 9 10 11 12 12 13 13 13 13 13 13 14 13 13 14 14 15 14 14 13 12 12 12 13 13
13 11 9 9 8 7 7 6 4 4 5 6 7 7 7 8 9 9 11 12 12 13 13 12 13 13 14 14 13 12 13 14 14 13 12 12 12 12 12 12 12 13
13 11 10 10 8 8 8 7 5 3 4 4 5 7 7 7 8 8 8 11 11 12 12 13 13 13 14 14 14 13 13 13 12 11 10 12 12 12 12 12 12 12
13 12 11 10 9 7 7 7 7 5 4 4 4 4 5 5 5 7 6 7 9 10 11 11 11 11 12 12 13 13 13 13 12 11 12 11 11 12 12 12 13 13
13 12 12 12 10 8 6 6 5 6 6 4 3 4 5 5 5 5 5 4 6 7 7 7 8 9 10 10 10 11 11 11 11 11 11 11 11 11 11 11 12 13
12 11 9 10 11 11 9 7 6 4 5 4 5 5 4 5 4 3 4 5 4 5 6 6 7 8 7 7 8 9 9 9 10 11 11 11 10 10 11 11 12 12
13 10 10 10 10 10 9 9 7 6 6 6 5 4 5 4 4 4 4 4 4 4 4 5 6 5 5 9 9 8 9 8 8 9 10 10 10 10 10 11 11 11
11 11 10 10 9 9 9 9 7 6 6 7 7 7 6 5 5 5 4 4 5 5 5 6 6 6 8 8 9 11 8 7 8 8 9 9 10 10 11 10 9 10
12 11 10 10 9 9 9 8 7 5 4 4 5 7 7 5 5 5 3 4 4 5 5 6 6 6 8 8 8 8 7 7 7 7 6 7 8 9 9 9 9 9
11 13 13 10 8 9 9 8 8 6 4 3 4 5 5 6 6 5 5 3 4 5 5 5 5 7 8 9 8 8 8 7 6 8 8 7 6 6 7 7 7 7
9 9 11 13 11 8 8 8 8 7 5 4 3 3 4 5 5 6 5 5 4 4 5 5 4 4 5 6 6 7 8 7 6 7 7 6 7 7 7 7 7 7
13 10 8 11 12 11 9 7 7 6 5 4 3 4 4 5 5 5 4 4 4 4 4 5 5 5 6 6 5 5 6 6 5 5 4 3 2 2 3 4 4 6
14 14 14 11 10 10 10 9 7 6 6 5 4 3 3 3 4 4 5 5 4 3 3 7 6 4 6 7 6 6 4 3 2 1 1 0 2 3 2 2 1 1
14 14 14 13 10 8 9 10 8 8 6 4 4 4 3 3 4 4 4 4 5 4 5 7 8 6 5 6 6 5 4 2 3 3 3 3 3 3 3 4 3 2
14 13 14 13 11 10 9 9 9 7 6 4 4 5 5 3 2 3 4 4 5 5 5 6 7 4 5 6 6 6 5 3 3 4 3 3 3 3 3 3 5 8
13 13 13 12 12 10 8 10 8 6 6 6 5 4 5 4 3 3 4 4 4 5 3 5 7 5 5 7 7 7 5 3 4 4 4 3 4 3 2 4 5 6
12 11 12 11 11 10 8 8 8 7 6 5 4 4 5 4 4 3 4 5 4 4 4 5 6 5 4 5 6 7 8 5 4 4 4 4 3 4 4 3 3 5
Wind_Direction
263 254 249 246 245 244 243 240 233 227 227 218 224 221 224 217 215 221 220 220 220 221 221 221 221 221 222 223 221 221 222 220 219 220 219 219 222 220 218 216 218 221
275 265 257 253 250 246 245 243 241 234 225 218 220 224 218 209 202 201 208 218 221 224 224 223 223 223 222 223 221 221 224 223 223 218 222 221 223 223 222 216 216 221
282 276 265 255 250 250 249 247 245 242 240 235 229 223 226 206 206 204 205 205 216 225 225 224 223 223 223 224 223 223 225 224 224 221 221 223 221 224 226 219 216 219
287 278 274 267 260 255 250 247 244 245 243 241 238 229 209 208 202 211 207 204 219 223 223 223 224 224 224 224 223 226 226 225 224 222 223 224 227 226 225 217 219 221
295 288 279 275 270 263 253 244 241 241 238 241 241 236 217 217 217 214 221 222 220 222 222 223 223 224 222 223 222 225 226 226 223 224 227 227 226 225 226 220 216 218
297 285 280 274 277 277 261 248 245 239 230 233 239 238 234 214 224 227 224 221 221 221 222 222 223 222 219 217 217 221 223 222 219 216 222 225 226 222 216 215 218 220
310 304 291 277 264 274 293 277 251 238 234 233 229 230 230 221 222 227 224 222 220 219 220 220 219 217 214 215 216 218 219 220 217 215 221 226 224 221 216 216 218 221
312 308 298 290 280 260 254 279 303 293 258 235 227 220 215 216 218 226 225 221 217 216 216 218 219 218 216 214 217 219 218 217 220 219 222 228 224 225 219 219 219 223
311 307 307 300 288 271 252 254 262 273 298 300 277 261 239 227 225 225 221 219 221 217 217 217 218 221 221 219 219 220 218 216 220 226 230 227 227 227 225 220 221 222
316 312 306 304 301 296 288 268 260 269 266 253 253 257 251 243 239 233 227 222 222 222 221 221 220 221 222 223 223 220 221 225 227 231 232 231 229 226 221 220 223 223
317 318 311 307 304 304 303 298 289 284 280 277 269 256 248 245 239 234 235 233 230 228 227 225 224 222 223 225 226 225 226 229 230 229 228 230 229 229 224 221 221 223
319 319 317 313 309 307 305 304 300 276 264 259 258 259 259 255 249 239 232 233 231 231 230 230 228 226 226 227 228 228 228 229 228 225 225 226 228 228 227 222 223 224
322 322 320 312 310 309 309 309 304 293 258 243 236 246 256 252 247 250 249 244 243 239 237 235 233 231 229 228 227 225 224 224 225 226 226 225 223 223 222 221 221 221
325 321 318 315 310 302 296 295 297 300 298 288 259 239 232 233 247 253 257 251 253 250 244 241 238 235 232 230 228 225 221 220 220 223 225 226 226 223 222 222 221 221
323 320 317 315 313 312 310 310 308 303 296 289 284 274 256 245 232 236 260 269 266 265 269 255 243 239 231 225 223 226 226 223 221 221 224 227 228 226 223 222 222 221
320 316 318 316 310 309 310 313 316 319 319 314 303 288 285 272 249 228 224 234 248 251 250 257 259 261 263 250 236 229 227 230 228 225 224 225 228 228 227 224 223 221
319 322 322 317 316 308 302 300 303 309 312 312 311 314 308 296 275 250 226 229 226 229 237 240 242 240 249 259 261 259 258 247 234 232 228 227 227 226 228 226 227 228
319 319 319 319 316 312 308 302 295 291 293 295 300 301 301 305 291 281 270 244 241 235 236 239 242 247 249 254 254 254 246 247 257 258 248 239 233 231 232 230 225 229
323 324 320 319 318 312 307 302 298 295 291 297 297 298 296 289 287 295 289 285 265 259 251 242 244 237 239 248 252 251 248 240 249 248 247 243 236 237 239 236 229 224
313 315 318 319 316 307 301 301 301 301 307 298 292 286 276 281 283 284 287 287 285 281 278 281 276 269 249 250 256 260 256 244 244 245 247 251 246 239 234 228 220 215
322 315 305 314 315 312 305 296 293 294 295 300 301 295 293 289 291 288 282 277 278 282 294 295 284 304 288 279 265 250 254 242 245 244 247 259 290 294 274 248 222 212
320 319 317 310 311 309 306 301 300 301 305 305 293 282 270 270 268 261 275 280 279 276 272 280 283 274 275 275 266 255 218 210 213 74 86 45 29 16 12 10 331 207
316 316 313 310 307 297 293 301 303 308 303 297 288 278 275 274 280 279 277 275 274 266 263 269 274 270 268 270 261 227 178 145 90 87 67 63 50 36 41 47 50 69
311 311 309 307 307 304 299 293 293 292 286 291 286 296 290 284 295 293 278 264 266 265 252 266 270 235 228 247 247 213 211 158 129 119 115 110 100 75 87 86 76 91
302 304 305 302 301 297 297 298 293 293 296 298 285 279 281 289 284 282 286 280 270 273 284 267 271 267 243 242 210 191 191 175 143 136 130 134 133 123 113 127 128 120
298 298 302 300 297 295 291 285 289 292 286 284 277 272 287 295 289 280 277 280 288 285 273 259 266 273 257 261 239 186 179 186 167 150 154 150 143 141 132 111 110 112